Time,TemperatureF,DewpointF,PressureIn,WindDirection,WindDirectionDegrees,WindSpeedMPH,WindSpeedGustMPH,Humidity,HourlyPrecipIn,Conditions,Clouds,dailyrainin,SoftwareType,DateUTC
2013-01-21 00:00:00,26.2,11.0,30.41,NNW,343,4.0,11.0,52,0.00,,SCT200,0.00,VWS V14.01,2013-01-21 06:00:00,
2013-01-21 00:03:00,26.1,10.9,30.41,NNW,335,6.0,10.0,52,0.00,,BKN200,0.00,VWS V14.01,2013-01-21 06:03:00,
2013-01-21 00:05:00,26.1,10.5,30.41,North,350,6.0,11.0,51,0.00,,SCT200,0.00,VWS V14.01,2013-01-21 06:05:00,
2013-01-21 00:08:00,26.0,10.8,30.41,NNE,22,11.0,12.0,52,0.00,,BKN200,0.00,VWS V14.01,2013-01-21 06:08:00,
2013-01-21 00:10:00,25.9,10.7,30.41,North,353,9.0,12.0,52,0.00,,SCT200,0.00,VWS V14.01,2013-01-21 06:10:00,
2013-01-21 00:13:00,25.8,10.6,30.41,North,8,5.0,11.0,52,0.00,,BKN200,0.00,VWS V14.01,2013-01-21 06:13:00,
2013-01-21 00:15:00,25.8,10.6,30.41,NW,326,8.0,13.0,52,0.00,,SCT200,0.00,VWS V14.01,2013-01-21 06:15:00,
2013-01-21 00:18:00,25.7,10.9,30.42,NNW,338,7.0,9.0,53,0.00,,BKN200,0.00,VWS V14.01,2013-01-21 06:18:00,
2013-01-21 00:20:00,25.6,10.4,30.42,West,281,4.0,9.0,52,0.00,,SCT200,0.00,VWS V14.01,2013-01-21 06:20:00,
2013-01-21 00:23:00,25.5,10.8,30.42,NNW,331,3.0,9.0,53,0.00,,BKN200,0.00,VWS V14.01,2013-01-21 06:23:00,
2013-01-21 00:25:00,25.4,10.7,30.42,WNW,285,4.0,9.0,53,0.00,,SCT200,0.00,VWS V14.01,2013-01-21 06:25:00,
2013-01-21 00:28:00,25.3,11.0,30.42,North,1,3.0,12.0,54,0.00,,BKN200,0.00,VWS V14.01,2013-01-21 06:28:00,
2013-01-21 00:30:00,25.2,10.9,30.42,North,354,6.0,12.0,54,0.00,,SCT200,0.00,VWS V14.01,2013-01-21 06:30:00,
2013-01-21 00:33:00,25.0,10.7,30.42,North,354,5.0,10.0,54,0.00,,OVC200,0.00,VWS V14.01,2013-01-21 06:33:00,
2013-01-21 00:35:00,25.0,11.1,30.42,North,4,8.0,12.0,55,0.00,,SCT200,0.00,VWS V14.01,2013-01-21 06:35:00,
2013-01-21 00:38:00,24.9,11.0,30.42,NNE,12,4.0,11.0,55,0.00,,OVC200,0.00,VWS V14.01,2013-01-21 06:38:00,
2013-01-21 00:40:00,24.8,10.9,30.42,NNW,342,3.0,11.0,55,0.00,,SCT200,0.00,VWS V14.01,2013-01-21 06:40:00,
2013-01-21 00:43:00,24.7,11.2,30.42,North,353,3.0,11.0,56,0.00,,OVC200,0.00,VWS V14.01,2013-01-21 06:43:00,
2013-01-21 00:45:00,24.7,11.2,30.42,NNW,333,4.0,11.0,56,0.00,,SCT200,0.00,VWS V14.01,2013-01-21 06:45:00,
2013-01-21 00:48:00,24.5,11.1,30.42,NE,35,3.0,10.0,56,0.00,,OVC200,0.00,VWS V14.01,2013-01-21 06:48:00,
2013-01-21 00:50:00,24.5,11.5,30.42,NNW,345,5.0,10.0,57,0.00,,SCT200,0.00,VWS V14.01,2013-01-21 06:50:00,
2013-01-21 00:53:00,24.3,11.3,30.42,NNE,20,3.0,10.0,57,0.00,,OVC200,0.00,VWS V14.01,2013-01-21 06:53:00,
2013-01-21 00:55:00,24.3,11.3,30.42,NNW,348,5.0,10.0,57,0.00,,SCT200,0.00,VWS V14.01,2013-01-21 06:55:00,
2013-01-21 00:58:00,24.2,11.6,30.42,NNE,15,3.0,9.0,58,0.00,,OVC200,0.00,VWS V14.01,2013-01-21 06:58:00,
2013-01-21 01:00:00,24.1,11.5,30.42,North,357,5.0,9.0,58,0.00,,SCT200,0.00,VWS V14.01,2013-01-21 07:00:00,
2013-01-21 01:03:00,24.0,11.4,30.42,NNW,336,6.0,10.0,58,0.00,,OVC200,0.00,VWS V14.01,2013-01-21 07:03:00,
2013-01-21 01:05:00,23.9,11.3,30.42,NNE,13,4.0,10.0,58,0.00,,SCT200,0.00,VWS V14.01,2013-01-21 07:05:00,
2013-01-21 01:08:00,23.8,11.6,30.42,North,11,3.0,8.0,59,0.00,,OVC200,0.00,VWS V14.01,2013-01-21 07:08:00,
2013-01-21 01:10:00,23.8,11.6,30.42,NNW,343,2.0,8.0,59,0.00,,SCT200,0.00,VWS V14.01,2013-01-21 07:10:00,
2013-01-21 01:13:00,23.7,11.9,30.42,NNW,335,2.0,6.0,60,0.00,,OVC200,0.00,VWS V14.01,2013-01-21 07:13:00,
2013-01-21 01:15:00,23.6,11.8,30.42,NNW,335,7.0,7.0,60,0.00,,SCT200,0.00,VWS V14.01,2013-01-21 07:15:00,
2013-01-21 01:18:00,23.5,12.0,30.42,NNE,18,6.0,10.0,61,0.00,,OVC200,0.00,VWS V14.01,2013-01-21 07:18:00,
2013-01-21 01:20:00,23.4,11.9,30.43,NNW,339,5.0,10.0,61,0.00,,SCT200,0.00,VWS V14.01,2013-01-21 07:20:00,
2013-01-21 01:23:00,23.3,12.2,30.42,North,354,5.0,10.0,62,0.00,,OVC200,0.00,VWS V14.01,2013-01-21 07:23:00,
2013-01-21 01:25:00,23.2,12.1,30.42,NNW,338,6.0,10.0,62,0.00,,SCT200,0.00,VWS V14.01,2013-01-21 07:25:00,
2013-01-21 01:28:00,23.1,12.0,30.42,NNW,342,3.0,9.0,62,0.00,,OVC200,0.00,VWS V14.01,2013-01-21 07:28:00,
2013-01-21 01:30:00,23.0,11.9,30.42,North,1,2.0,9.0,62,0.00,,SCT200,0.00,VWS V14.01,2013-01-21 07:30:00,
2013-01-21 01:33:00,22.9,12.2,30.42,North,11,6.0,8.0,63,0.00,,BKN200,0.00,VWS V14.01,2013-01-21 07:33:00,
2013-01-21 01:35:00,22.8,12.1,30.42,NNW,338,3.0,8.0,63,0.00,,SCT200,0.00,VWS V14.01,2013-01-21 07:35:00,
2013-01-21 01:38:00,22.7,12.0,30.42,North,1,3.0,7.0,63,0.00,,BKN200,0.00,VWS V14.01,2013-01-21 07:38:00,
2013-01-21 01:40:00,22.7,12.0,30.42,NNE,13,2.0,7.0,63,0.00,,SCT200,0.00,VWS V14.01,2013-01-21 07:40:00,
2013-01-21 01:43:00,22.6,12.3,30.42,North,4,4.0,8.0,64,0.00,,BKN200,0.00,VWS V14.01,2013-01-21 07:43:00,
2013-01-21 01:45:00,22.5,12.2,30.42,North,8,4.0,8.0,64,0.00,,SCT200,0.00,VWS V14.01,2013-01-21 07:45:00,
2013-01-21 01:48:00,22.4,12.1,30.42,North,359,7.0,7.0,64,0.00,,BKN200,0.00,VWS V14.01,2013-01-21 07:48:00,
2013-01-21 01:50:00,22.4,12.1,30.42,NNW,338,2.0,7.0,64,0.00,,SCT200,0.00,VWS V14.01,2013-01-21 07:50:00,
2013-01-21 01:53:00,22.3,12.3,30.42,North,353,3.0,7.0,65,0.00,,BKN200,0.00,VWS V14.01,2013-01-21 07:53:00,
2013-01-21 01:55:00,22.3,12.3,30.42,North,359,4.0,8.0,65,0.00,,SCT200,0.00,VWS V14.01,2013-01-21 07:55:00,
2013-01-21 01:58:00,22.2,12.2,30.42,North,359,3.0,7.0,65,0.00,,BKN200,0.00,VWS V14.01,2013-01-21 07:58:00,
2013-01-21 02:00:00,22.2,12.2,30.42,NW,326,4.0,7.0,65,0.00,,SCT200,0.00,VWS V14.01,2013-01-21 08:00:00,
2013-01-21 02:03:00,22.2,12.2,30.42,NNE,13,4.0,8.0,65,0.00,,BKN200,0.00,VWS V14.01,2013-01-21 08:03:00,
2013-01-21 02:05:00,22.2,12.2,30.43,NNW,342,2.0,8.0,65,0.00,,SCT200,0.00,VWS V14.01,2013-01-21 08:05:00,
2013-01-21 02:08:00,22.1,11.8,30.42,NNW,338,6.0,7.0,64,0.00,,BKN200,0.00,VWS V14.01,2013-01-21 08:08:00,
2013-01-21 02:10:00,22.1,11.8,30.42,NE,45,4.0,7.0,64,0.00,,SCT200,0.00,VWS V14.01,2013-01-21 08:10:00,
2013-01-21 02:13:00,22.1,11.8,30.42,NNW,331,5.0,8.0,64,0.00,,BKN200,0.00,VWS V14.01,2013-01-21 08:13:00,
2013-01-21 02:15:00,22.1,11.8,30.42,NNE,27,6.0,8.0,64,0.00,,SCT200,0.00,VWS V14.01,2013-01-21 08:15:00,
2013-01-21 02:18:00,22.1,11.8,30.42,NNE,32,5.0,9.0,64,0.00,,BKN200,0.00,VWS V14.01,2013-01-21 08:18:00,
2013-01-21 02:20:00,22.1,12.1,30.42,NNE,28,3.0,9.0,65,0.00,,SCT200,0.00,VWS V14.01,2013-01-21 08:20:00,
2013-01-21 02:23:00,22.0,12.1,30.43,NNW,340,3.0,6.0,65,0.00,,BKN200,0.00,VWS V14.01,2013-01-21 08:23:00,
2013-01-21 02:25:00,22.0,12.1,30.43,NNE,19,3.0,8.0,65,0.00,,SCT200,0.00,VWS V14.01,2013-01-21 08:25:00,
2013-01-21 02:28:00,22.0,12.1,30.42,NNW,327,3.0,8.0,65,0.00,,BKN200,0.00,VWS V14.01,2013-01-21 08:28:00,
2013-01-21 02:30:00,21.9,11.9,30.42,NE,53,5.0,11.0,65,0.00,,SCT200,0.00,VWS V14.01,2013-01-21 08:30:00,
2013-01-21 02:33:00,21.9,12.0,30.42,North,8,4.0,8.0,65,0.00,,SCT200,0.00,VWS V14.01,2013-01-21 08:33:00,
2013-01-21 02:35:00,21.8,11.9,30.43,NNW,342,2.0,8.0,65,0.00,,SCT200,0.00,VWS V14.01,2013-01-21 08:35:00,
2013-01-21 02:38:00,21.8,11.9,30.43,North,3,5.0,6.0,65,0.00,,SCT200,0.00,VWS V14.01,2013-01-21 08:38:00,
2013-01-21 02:40:00,21.8,11.9,30.43,North,353,5.0,8.0,65,0.00,,SCT200,0.00,VWS V14.01,2013-01-21 08:40:00,
2013-01-21 02:43:00,21.6,11.7,30.43,North,4,2.0,6.0,65,0.00,,SCT200,0.00,VWS V14.01,2013-01-21 08:43:00,
2013-01-21 02:45:00,21.6,11.7,30.43,NNW,348,3.0,6.0,65,0.00,,SCT200,0.00,VWS V14.01,2013-01-21 08:45:00,
2013-01-21 02:48:00,21.6,11.7,30.43,NNW,346,3.0,7.0,65,0.00,,SCT200,0.00,VWS V14.01,2013-01-21 08:48:00,
2013-01-21 02:50:00,21.5,11.9,30.43,North,5,4.0,7.0,66,0.00,,SCT200,0.00,VWS V14.01,2013-01-21 08:50:00,
2013-01-21 02:53:00,21.5,11.9,30.43,NNW,348,1.0,5.0,66,0.00,,SCT200,0.00,VWS V14.01,2013-01-21 08:53:00,
2013-01-21 02:55:00,21.5,11.9,30.44,NNE,29,1.0,5.0,66,0.00,,SCT200,0.00,VWS V14.01,2013-01-21 08:55:00,
2013-01-21 02:58:00,21.4,12.2,30.44,NNE,27,2.0,3.0,67,0.00,,SCT200,0.00,VWS V14.01,2013-01-21 08:58:00,
2013-01-21 03:00:00,21.4,11.8,30.44,NNE,26,3.0,5.0,66,0.00,,SCT200,0.00,VWS V14.01,2013-01-21 09:00:00,
2013-01-21 03:03:00,21.3,11.7,30.44,NNE,22,4.0,5.0,66,0.00,,SCT200,0.00,VWS V14.01,2013-01-21 09:03:00,
2013-01-21 03:05:00,21.3,11.7,30.44,NNW,337,1.0,5.0,66,0.00,,SCT200,0.00,VWS V14.01,2013-01-21 09:05:00,
2013-01-21 03:08:00,21.2,11.6,30.44,NNW,338,2.0,4.0,66,0.00,,SCT200,0.00,VWS V14.01,2013-01-21 09:08:00,
2013-01-21 03:10:00,21.2,11.6,30.44,NW,309,2.0,4.0,66,0.00,,FEW250,0.00,VWS V14.01,2013-01-21 09:10:00,
2013-01-21 03:13:00,21.1,11.5,30.44,NNW,338,3.0,4.0,66,0.00,,SCT200,0.00,VWS V14.01,2013-01-21 09:13:00,
2013-01-21 03:15:00,21.0,11.4,30.44,North,11,4.0,4.0,66,0.00,,FEW250,0.00,VWS V14.01,2013-01-21 09:15:00,
2013-01-21 03:18:00,21.0,11.4,30.44,North,6,1.0,5.0,66,0.00,,SCT200,0.00,VWS V14.01,2013-01-21 09:18:00,
2013-01-21 03:20:00,20.9,11.7,30.44,NNW,330,0.0,5.0,67,0.00,,FEW250,0.00,VWS V14.01,2013-01-21 09:20:00,
2013-01-21 03:23:00,20.8,11.6,30.44,NNW,336,1.0,3.0,67,0.00,,SCT200,0.00,VWS V14.01,2013-01-21 09:23:00,
2013-01-21 03:25:00,20.7,11.5,30.44,NNW,334,1.0,3.0,67,0.00,,FEW250,0.00,VWS V14.01,2013-01-21 09:25:00,
2013-01-21 03:28:00,20.7,12.1,30.44,NNW,336,1.0,2.0,69,0.00,,SCT200,0.00,VWS V14.01,2013-01-21 09:28:00,
2013-01-21 03:30:00,20.6,12.1,30.44,NNW,329,1.0,3.0,69,0.00,,FEW250,0.00,VWS V14.01,2013-01-21 09:30:00,
2013-01-21 03:33:00,20.5,11.6,30.45,NNW,328,2.0,2.0,68,0.00,,FEW200,0.00,VWS V14.01,2013-01-21 09:33:00,
2013-01-21 03:35:00,20.5,11.6,30.45,NW,321,1.0,3.0,68,0.00,,FEW250,0.00,VWS V14.01,2013-01-21 09:35:00,
2013-01-21 03:38:00,20.4,11.5,30.45,NW,316,2.0,2.0,68,0.00,,FEW200,0.00,VWS V14.01,2013-01-21 09:38:00,
2013-01-21 03:40:00,20.4,11.5,30.45,NW,315,2.0,3.0,68,0.00,,FEW250,0.00,VWS V14.01,2013-01-21 09:40:00,
2013-01-21 03:43:00,20.3,11.4,30.45,North,359,1.0,2.0,68,0.00,,FEW200,0.00,VWS V14.01,2013-01-21 09:43:00,
2013-01-21 03:45:00,20.3,11.4,30.45,NNW,338,1.0,2.0,68,0.00,,FEW250,0.00,VWS V14.01,2013-01-21 09:45:00,
2013-01-21 03:48:00,20.3,11.8,30.45,NNW,331,1.0,3.0,69,0.00,,FEW200,0.00,VWS V14.01,2013-01-21 09:48:00,
2013-01-21 03:50:00,20.2,11.7,30.45,NW,322,1.0,3.0,69,0.00,,FEW250,0.00,VWS V14.01,2013-01-21 09:50:00,
2013-01-21 03:53:00,20.0,11.5,30.45,North,353,1.0,3.0,69,0.00,,FEW200,0.00,VWS V14.01,2013-01-21 09:53:00,
2013-01-21 03:55:00,19.9,11.4,30.45,NW,308,0.0,3.0,69,0.00,,FEW250,0.00,VWS V14.01,2013-01-21 09:55:00,
2013-01-21 03:58:00,19.7,11.5,30.44,NNW,342,1.0,2.0,70,0.00,,FEW200,0.00,VWS V14.01,2013-01-21 09:58:00,
2013-01-21 04:00:00,19.7,11.5,30.44,North,359,1.0,2.0,70,0.00,,FEW250,0.00,VWS V14.01,2013-01-21 10:00:00,
2013-01-21 04:03:00,19.5,11.6,30.44,North,358,0.0,1.0,71,0.00,,FEW200,0.00,VWS V14.01,2013-01-21 10:03:00,
2013-01-21 04:05:00,19.5,12.0,30.44,NNW,329,1.0,2.0,72,0.00,,FEW250,0.00,VWS V14.01,2013-01-21 10:05:00,
2013-01-21 04:08:00,19.5,11.6,30.45,NW,315,1.0,3.0,71,0.00,,FEW200,0.00,VWS V14.01,2013-01-21 10:08:00,
2013-01-21 04:10:00,19.5,11.6,30.44,NW,315,1.0,3.0,71,0.00,,FEW250,0.00,VWS V14.01,2013-01-21 10:10:00,
2013-01-21 04:13:00,19.4,11.6,30.44,NNW,345,1.0,2.0,71,0.00,,FEW200,0.00,VWS V14.01,2013-01-21 10:13:00,
2013-01-21 04:15:00,19.3,11.4,30.44,NNW,345,1.0,2.0,71,0.00,,FEW250,0.00,VWS V14.01,2013-01-21 10:15:00,
2013-01-21 04:18:00,19.2,11.7,30.44,NNW,343,1.0,2.0,72,0.00,,FEW200,0.00,VWS V14.01,2013-01-21 10:18:00,
2013-01-21 04:20:00,19.1,11.6,30.44,NNW,330,1.0,2.0,72,0.00,,FEW250,0.00,VWS V14.01,2013-01-21 10:20:00,
2013-01-21 04:23:00,19.1,11.6,30.43,NNW,330,0.0,1.0,72,0.00,,FEW200,0.00,VWS V14.01,2013-01-21 10:23:00,
2013-01-21 04:25:00,18.9,11.4,30.43,NNW,330,0.0,1.0,72,0.00,,FEW250,0.00,VWS V14.01,2013-01-21 10:25:00,
2013-01-21 04:28:00,18.8,11.6,30.43,NNW,330,0.0,0.0,73,0.00,,FEW200,0.00,VWS V14.01,2013-01-21 10:28:00,
2013-01-21 04:30:00,18.8,11.9,30.43,NNW,330,0.0,0.0,74,0.00,,FEW250,0.00,VWS V14.01,2013-01-21 10:30:00,
2013-01-21 04:33:00,18.7,11.8,30.43,NNW,329,1.0,1.0,74,0.00,,FEW200,0.00,VWS V14.01,2013-01-21 10:33:00,
2013-01-21 04:35:00,18.7,12.1,30.43,NNW,329,0.0,1.0,75,0.00,,FEW250,0.00,VWS V14.01,2013-01-21 10:35:00,
2013-01-21 04:38:00,18.6,11.7,30.43,NNW,329,1.0,1.0,74,0.00,,FEW200,0.00,VWS V14.01,2013-01-21 10:38:00,
2013-01-21 04:40:00,18.6,12.0,30.43,NNW,327,1.0,2.0,75,0.00,,FEW250,0.00,VWS V14.01,2013-01-21 10:40:00,
2013-01-21 04:43:00,18.6,11.7,30.43,NW,318,2.0,2.0,74,0.00,,FEW200,0.00,VWS V14.01,2013-01-21 10:43:00,
2013-01-21 04:45:00,18.7,11.8,30.43,NW,317,2.0,2.0,74,0.00,,FEW250,0.00,VWS V14.01,2013-01-21 10:45:00,
2013-01-21 04:48:00,18.6,11.7,30.43,NNW,344,2.0,3.0,74,0.00,,FEW200,0.00,VWS V14.01,2013-01-21 10:48:00,
2013-01-21 04:50:00,18.6,11.7,30.43,NNW,340,2.0,3.0,74,0.00,,FEW250,0.00,VWS V14.01,2013-01-21 10:50:00,
2013-01-21 04:53:00,18.5,11.6,30.43,NW,324,3.0,5.0,74,0.00,,FEW200,0.00,VWS V14.01,2013-01-21 10:53:00,
2013-01-21 04:55:00,18.5,11.6,30.43,NW,316,3.0,5.0,74,0.00,,FEW250,0.00,VWS V14.01,2013-01-21 10:55:00,
2013-01-21 04:58:00,18.6,12.0,30.43,NNW,329,2.0,4.0,75,0.00,,FEW200,0.00,VWS V14.01,2013-01-21 10:58:00,
2013-01-21 05:00:00,18.6,12.0,30.43,NNE,15,2.0,4.0,75,0.00,,FEW250,0.00,VWS V14.01,2013-01-21 11:00:00,
2013-01-21 05:03:00,18.6,12.0,30.43,NNW,338,3.0,5.0,75,0.00,,FEW200,0.00,VWS V14.01,2013-01-21 11:03:00,
2013-01-21 05:05:00,18.7,12.4,30.43,North,359,4.0,5.0,76,0.00,,FEW250,0.00,VWS V14.01,2013-01-21 11:05:00,
2013-01-21 05:08:00,18.8,12.2,30.43,NW,308,2.0,4.0,75,0.00,,FEW200,0.00,VWS V14.01,2013-01-21 11:08:00,
2013-01-21 05:10:00,18.7,12.1,30.43,NNW,342,1.0,4.0,75,0.00,,FEW250,0.00,VWS V14.01,2013-01-21 11:10:00,
2013-01-21 05:13:00,18.6,11.7,30.42,NNW,330,1.0,2.0,74,0.00,,FEW200,0.00,VWS V14.01,2013-01-21 11:13:00,
2013-01-21 05:15:00,18.6,11.7,30.43,NW,316,2.0,3.0,74,0.00,,FEW250,0.00,VWS V14.01,2013-01-21 11:15:00,
2013-01-21 05:18:00,18.6,11.7,30.42,NNE,13,1.0,3.0,74,0.00,,FEW200,0.00,VWS V14.01,2013-01-21 11:18:00,
2013-01-21 05:20:00,18.5,11.6,30.42,NW,324,1.0,3.0,74,0.00,,FEW250,0.00,VWS V14.01,2013-01-21 11:20:00,
2013-01-21 05:23:00,18.5,11.6,30.43,NNW,328,1.0,4.0,74,0.00,,FEW200,0.00,VWS V14.01,2013-01-21 11:23:00,
2013-01-21 05:25:00,18.5,11.6,30.43,NNE,26,0.0,4.0,74,0.00,,FEW250,0.00,VWS V14.01,2013-01-21 11:25:00,
2013-01-21 05:28:00,18.4,11.5,30.43,NNW,331,1.0,1.0,74,0.00,,FEW200,0.00,VWS V14.01,2013-01-21 11:28:00,
2013-01-21 05:30:00,18.4,11.5,30.43,NNW,328,1.0,2.0,74,0.00,,FEW250,0.00,VWS V14.01,2013-01-21 11:30:00,
2013-01-21 05:33:00,18.3,11.7,30.43,NW,326,1.0,2.0,75,0.00,,FEW200,0.00,VWS V14.01,2013-01-21 11:33:00,
2013-01-21 05:35:00,18.4,12.1,30.43,NW,314,1.0,3.0,76,0.00,,FEW250,0.00,VWS V14.01,2013-01-21 11:35:00,
2013-01-21 05:38:00,18.4,12.4,30.43,NNW,327,1.0,2.0,77,0.00,,FEW200,0.00,VWS V14.01,2013-01-21 11:38:00,
2013-01-21 05:40:00,18.3,11.7,30.43,NW,322,2.0,2.0,75,0.00,,FEW250,0.00,VWS V14.01,2013-01-21 11:40:00,
2013-01-21 05:43:00,18.2,11.6,30.42,NNW,346,1.0,3.0,75,0.00,,FEW200,0.00,VWS V14.01,2013-01-21 11:43:00,
2013-01-21 05:45:00,18.1,11.5,30.42,NNW,340,1.0,3.0,75,0.00,,FEW250,0.00,VWS V14.01,2013-01-21 11:45:00,
2013-01-21 05:48:00,18.0,11.4,30.43,NNW,338,0.0,3.0,75,0.00,,FEW200,0.00,VWS V14.01,2013-01-21 11:48:00,
2013-01-21 05:50:00,18.0,11.4,30.43,NW,319,1.0,3.0,75,0.00,,FEW250,0.00,VWS V14.01,2013-01-21 11:50:00,
2013-01-21 05:53:00,17.9,11.3,30.43,NNW,342,2.0,3.0,75,0.00,,FEW200,0.00,VWS V14.01,2013-01-21 11:53:00,
2013-01-21 05:55:00,17.9,11.6,30.42,NNW,345,1.0,3.0,76,0.00,,FEW250,0.00,VWS V14.01,2013-01-21 11:55:00,
2013-01-21 05:58:00,17.8,11.5,30.42,NNW,343,0.0,2.0,76,0.00,,FEW200,0.00,VWS V14.01,2013-01-21 11:58:00,
2013-01-21 06:00:00,17.8,11.5,30.42,North,359,1.0,2.0,76,0.00,,FEW250,0.00,VWS V14.01,2013-01-21 12:00:00,
2013-01-21 06:03:00,17.7,11.7,30.42,North,359,0.0,1.0,77,0.00,,FEW200,0.00,VWS V14.01,2013-01-21 12:03:00,
2013-01-21 06:05:00,17.6,11.6,30.42,North,359,1.0,1.0,77,0.00,,FEW250,0.00,VWS V14.01,2013-01-21 12:05:00,
2013-01-21 06:08:00,17.6,11.6,30.42,NNW,335,1.0,2.0,77,0.00,,FEW200,0.00,VWS V14.01,2013-01-21 12:08:00,
2013-01-21 06:10:00,17.6,11.3,30.42,NNW,336,1.0,2.0,76,0.00,,FEW250,0.00,VWS V14.01,2013-01-21 12:10:00,
2013-01-21 06:13:00,17.5,11.2,30.42,NNW,336,0.0,1.0,76,0.00,,FEW200,0.00,VWS V14.01,2013-01-21 12:13:00,
2013-01-21 06:15:00,17.5,11.2,30.43,NNW,327,0.0,1.0,76,0.00,,FEW250,0.00,VWS V14.01,2013-01-21 12:15:00,
2013-01-21 06:18:00,17.6,11.3,30.43,NNW,328,1.0,1.0,76,0.00,,FEW200,0.00,VWS V14.01,2013-01-21 12:18:00,
2013-01-21 06:20:00,17.6,11.6,30.43,NNW,327,0.0,1.0,77,0.00,,FEW250,0.00,VWS V14.01,2013-01-21 12:20:00,
2013-01-21 06:23:00,17.7,11.7,30.43,NNW,327,1.0,1.0,77,0.00,,FEW200,0.00,VWS V14.01,2013-01-21 12:23:00,
2013-01-21 06:25:00,17.7,11.7,30.43,NNW,328,0.0,1.0,77,0.00,,FEW250,0.00,VWS V14.01,2013-01-21 12:25:00,
2013-01-21 06:28:00,17.7,12.0,30.43,NNW,328,0.0,0.0,78,0.00,,FEW200,0.00,VWS V14.01,2013-01-21 12:28:00,
2013-01-21 06:30:00,17.6,11.6,30.43,NNW,327,0.0,0.0,77,0.00,,FEW250,0.00,VWS V14.01,2013-01-21 12:30:00,
2013-01-21 06:33:00,17.4,11.4,30.43,NNW,327,0.0,0.0,77,0.00,,CLR,0.00,VWS V14.01,2013-01-21 12:33:00,
2013-01-21 06:35:00,17.2,11.2,30.43,NNW,328,0.0,0.0,77,0.00,,FEW250,0.00,VWS V14.01,2013-01-21 12:35:00,
2013-01-21 06:38:00,17.0,11.1,30.43,NNW,328,0.0,0.0,77,0.00,,CLR,0.00,VWS V14.01,2013-01-21 12:38:00,
2013-01-21 06:40:00,16.8,11.1,30.43,NNW,328,0.0,0.0,78,0.00,,FEW250,0.00,VWS V14.01,2013-01-21 12:40:00,
2013-01-21 06:43:00,16.6,10.9,30.43,SW,223,0.0,1.0,78,0.00,,CLR,0.00,VWS V14.01,2013-01-21 12:43:00,
2013-01-21 06:45:00,16.5,10.9,30.43,SW,224,0.0,1.0,78,0.00,,FEW250,0.00,VWS V14.01,2013-01-21 12:45:00,
2013-01-21 06:48:00,16.3,10.7,30.43,SW,224,0.0,1.0,78,0.00,,CLR,0.00,VWS V14.01,2013-01-21 12:48:00,
2013-01-21 06:50:00,16.2,10.6,30.43,SW,224,0.0,1.0,78,0.00,,FEW250,0.00,VWS V14.01,2013-01-21 12:50:00,
2013-01-21 06:53:00,16.0,10.6,30.43,SW,224,0.0,0.0,79,0.00,,CLR,0.00,VWS V14.01,2013-01-21 12:53:00,
2013-01-21 06:55:00,15.9,10.6,30.43,SW,224,0.0,0.0,79,0.00,,FEW250,0.00,VWS V14.01,2013-01-21 12:55:00,
2013-01-21 06:58:00,15.7,10.4,30.43,SW,224,0.0,0.0,79,0.00,,CLR,0.00,VWS V14.01,2013-01-21 12:58:00,
2013-01-21 07:00:00,15.6,10.5,30.43,SW,224,0.0,1.0,80,0.00,,FEW250,0.00,VWS V14.01,2013-01-21 13:00:00,
2013-01-21 07:03:00,15.6,10.5,30.43,SW,224,0.0,0.0,80,0.00,,CLR,0.00,VWS V14.01,2013-01-21 13:03:00,
2013-01-21 07:05:00,15.5,10.4,30.44,SW,224,0.0,0.0,80,0.00,,FEW250,0.00,VWS V14.01,2013-01-21 13:05:00,
2013-01-21 07:08:00,15.5,10.7,30.44,SW,224,0.0,1.0,81,0.00,,CLR,0.00,VWS V14.01,2013-01-21 13:08:00,
2013-01-21 07:10:00,15.6,10.8,30.44,SW,224,0.0,1.0,81,0.00,,FEW250,0.00,VWS V14.01,2013-01-21 13:10:00,
2013-01-21 07:13:00,15.7,10.9,30.44,SW,224,0.0,0.0,81,0.00,,CLR,0.00,VWS V14.01,2013-01-21 13:13:00,
2013-01-21 07:15:00,15.7,10.9,30.44,SW,224,0.0,0.0,81,0.00,,FEW250,0.00,VWS V14.01,2013-01-21 13:15:00,
2013-01-21 07:18:00,15.8,11.3,30.44,SW,224,0.0,1.0,82,0.00,,CLR,0.00,VWS V14.01,2013-01-21 13:18:00,
2013-01-21 07:20:00,15.8,11.3,30.44,SW,224,0.0,1.0,82,0.00,,FEW250,0.00,VWS V14.01,2013-01-21 13:20:00,
2013-01-21 07:22:00,15.8,11.0,30.44,SW,224,0.0,1.0,81,0.00,,CLR,0.00,VWS V14.01,2013-01-21 13:22:00,
2013-01-21 07:25:00,15.8,11.0,30.45,WSW,257,1.0,1.0,81,0.00,,FEW250,0.00,VWS V14.01,2013-01-21 13:25:00,
2013-01-21 07:27:00,15.9,11.4,30.45,WNW,286,1.0,1.0,82,0.00,,CLR,0.00,VWS V14.01,2013-01-21 13:27:00,
2013-01-21 07:30:00,15.9,11.4,30.45,WNW,287,0.0,1.0,82,0.00,,FEW250,0.00,VWS V14.01,2013-01-21 13:30:00,
2013-01-21 07:32:00,16.0,11.2,30.45,WNW,286,0.0,1.0,81,0.00,,CLR,0.00,VWS V14.01,2013-01-21 13:32:00,
2013-01-21 07:35:00,15.9,11.1,30.45,WNW,286,0.0,1.0,81,0.00,,FEW250,0.00,VWS V14.01,2013-01-21 13:35:00,
2013-01-21 07:37:00,15.9,11.1,30.45,WNW,287,0.0,0.0,81,0.00,,CLR,0.00,VWS V14.01,2013-01-21 13:37:00,
2013-01-21 07:40:00,15.9,11.1,30.45,WNW,286,0.0,0.0,81,0.00,,FEW250,0.00,VWS V14.01,2013-01-21 13:40:00,
2013-01-21 07:42:00,15.7,10.6,30.45,WNW,287,0.0,0.0,80,0.00,,CLR,0.00,VWS V14.01,2013-01-21 13:42:00,
2013-01-21 07:45:00,15.5,10.7,30.45,WNW,286,0.0,0.0,81,0.00,,FEW250,0.00,VWS V14.01,2013-01-21 13:45:00,
2013-01-21 07:47:00,15.4,10.6,30.45,WNW,287,0.0,0.0,81,0.00,,CLR,0.00,VWS V14.01,2013-01-21 13:47:00,
2013-01-21 07:50:00,15.4,10.6,30.45,WNW,286,0.0,0.0,81,0.00,,FEW250,0.00,VWS V14.01,2013-01-21 13:50:00,
2013-01-21 07:52:00,15.4,10.9,30.45,WNW,286,0.0,0.0,82,0.00,,CLR,0.00,VWS V14.01,2013-01-21 13:52:00,
2013-01-21 07:55:00,15.4,10.9,30.44,WNW,286,0.0,0.0,82,0.00,,FEW250,0.00,VWS V14.01,2013-01-21 13:55:00,
2013-01-21 07:57:00,15.5,11.0,30.45,WNW,286,0.0,0.0,82,0.00,,CLR,0.00,VWS V14.01,2013-01-21 13:57:00,
2013-01-21 08:00:00,15.5,11.0,30.45,WNW,286,0.0,0.0,82,0.00,,FEW250,0.00,VWS V14.01,2013-01-21 14:00:00,
2013-01-21 08:02:00,15.5,11.0,30.45,WSW,248,0.0,0.0,82,0.00,,CLR,0.00,VWS V14.01,2013-01-21 14:02:00,
2013-01-21 08:05:00,15.6,11.1,30.45,WSW,246,0.0,0.0,82,0.00,,FEW250,0.00,VWS V14.01,2013-01-21 14:05:00,
2013-01-21 08:07:00,15.6,11.1,30.45,WSW,246,0.0,0.0,82,0.00,,CLR,0.00,VWS V14.01,2013-01-21 14:07:00,
2013-01-21 08:10:00,15.6,11.1,30.45,WSW,246,0.0,0.0,82,0.00,,FEW250,0.00,VWS V14.01,2013-01-21 14:10:00,
2013-01-21 08:12:00,15.6,11.1,30.45,WSW,246,0.0,0.0,82,0.00,,CLR,0.00,VWS V14.01,2013-01-21 14:12:00,
2013-01-21 08:15:00,15.7,11.2,30.45,WSW,245,0.0,0.0,82,0.00,,FEW250,0.00,VWS V14.01,2013-01-21 14:15:00,
2013-01-21 08:17:00,16.0,11.5,30.45,WSW,246,0.0,0.0,82,0.00,,CLR,0.00,VWS V14.01,2013-01-21 14:17:00,
2013-01-21 08:20:00,16.2,11.7,30.45,WSW,246,0.0,0.0,82,0.00,,FEW250,0.00,VWS V14.01,2013-01-21 14:20:00,
2013-01-21 08:22:00,16.6,11.8,30.45,WSW,246,0.0,0.0,81,0.00,,CLR,0.00,VWS V14.01,2013-01-21 14:22:00,
2013-01-21 08:25:00,16.9,12.1,30.45,WSW,246,0.0,0.0,81,0.00,,FEW250,0.00,VWS V14.01,2013-01-21 14:25:00,
2013-01-21 08:27:00,17.3,12.2,30.45,WSW,246,0.0,0.0,80,0.00,,CLR,0.00,VWS V14.01,2013-01-21 14:27:00,
2013-01-21 08:30:00,17.5,12.1,30.45,WSW,246,0.0,0.0,79,0.00,,FEW250,0.00,VWS V14.01,2013-01-21 14:30:00,
2013-01-21 08:32:00,17.8,12.4,30.45,WSW,246,1.0,1.0,79,0.00,,FEW140,0.00,VWS V14.01,2013-01-21 14:32:00,
2013-01-21 08:35:00,18.0,12.3,30.45,SW,214,2.0,2.0,78,0.00,,FEW250,0.00,VWS V14.01,2013-01-21 14:35:00,
2013-01-21 08:37:00,18.3,12.3,30.45,SW,222,2.0,2.0,77,0.00,,FEW140,0.00,VWS V14.01,2013-01-21 14:37:00,
2013-01-21 08:40:00,18.5,12.5,30.45,South,186,1.0,2.0,77,0.00,,FEW250,0.00,VWS V14.01,2013-01-21 14:40:00,
2013-01-21 08:42:00,18.8,12.5,30.45,SE,145,2.0,2.0,76,0.00,,FEW140,0.00,VWS V14.01,2013-01-21 14:42:00,
2013-01-21 08:45:00,19.1,12.8,30.45,SSW,194,1.0,2.0,76,0.00,,FEW250,0.00,VWS V14.01,2013-01-21 14:45:00,
2013-01-21 08:47:00,19.3,13.0,30.45,SW,231,2.0,3.0,76,0.00,,FEW140,0.00,VWS V14.01,2013-01-21 14:47:00,
2013-01-21 08:50:00,19.5,12.6,30.45,SW,236,1.0,4.0,74,0.00,,FEW250,0.00,VWS V14.01,2013-01-21 14:50:00,
2013-01-21 08:52:00,19.7,12.8,30.45,SW,226,1.0,2.0,74,0.00,,FEW140,0.00,VWS V14.01,2013-01-21 14:52:00,
2013-01-21 08:55:00,19.9,13.3,30.45,SW,218,4.0,4.0,75,0.00,,FEW250,0.00,VWS V14.01,2013-01-21 14:55:00,
2013-01-21 08:57:00,20.1,13.2,30.45,South,188,0.0,4.0,74,0.00,,FEW140,0.00,VWS V14.01,2013-01-21 14:57:00,
2013-01-21 09:00:00,20.5,13.6,30.45,SSW,210,1.0,4.0,74,0.00,,FEW250,0.00,VWS V14.01,2013-01-21 15:00:00,
2013-01-21 09:02:00,20.7,13.4,30.46,WSW,243,1.0,3.0,73,0.00,,FEW140,0.00,VWS V14.01,2013-01-21 15:02:00,
2013-01-21 09:05:00,20.9,13.3,30.46,SW,224,3.0,3.0,72,0.00,,FEW250,0.00,VWS V14.01,2013-01-21 15:05:00,
2013-01-21 09:07:00,21.3,13.4,30.46,SW,231,1.0,3.0,71,0.00,,FEW140,0.00,VWS V14.01,2013-01-21 15:07:00,
2013-01-21 09:10:00,21.5,13.2,30.46,WSW,240,1.0,3.0,70,0.00,,FEW250,0.00,VWS V14.01,2013-01-21 15:10:00,
2013-01-21 09:12:00,21.8,13.5,30.46,WSW,245,1.0,2.0,70,0.00,,FEW140,0.00,VWS V14.01,2013-01-21 15:12:00,
2013-01-21 09:15:00,22.1,13.5,30.46,SSW,201,1.0,3.0,69,0.00,,FEW250,0.00,VWS V14.01,2013-01-21 15:15:00,
2013-01-21 09:17:00,22.4,13.4,30.46,ESE,110,0.0,2.0,68,0.00,,FEW140,0.00,VWS V14.01,2013-01-21 15:17:00,
2013-01-21 09:20:00,22.8,13.5,30.47,SW,236,1.0,3.0,67,0.00,,FEW250,0.00,VWS V14.01,2013-01-21 15:20:00,
2013-01-21 09:22:00,23.1,13.4,30.47,WSW,249,0.0,2.0,66,0.00,,FEW140,0.00,VWS V14.01,2013-01-21 15:22:00,
2013-01-21 09:25:00,23.5,13.8,30.47,WSW,245,1.0,2.0,66,0.00,,FEW250,0.00,VWS V14.01,2013-01-21 15:25:00,
2013-01-21 09:27:00,24.0,14.0,30.46,SW,236,1.0,3.0,65,0.00,,FEW140,0.00,VWS V14.01,2013-01-21 15:27:00,
2013-01-21 09:30:00,24.1,14.1,30.47,SW,232,2.0,3.0,65,0.00,,FEW250,0.00,VWS V14.01,2013-01-21 15:30:00,
2013-01-21 09:32:00,24.2,13.8,30.47,SSE,151,1.0,4.0,64,0.00,,FEW250,0.00,VWS V14.01,2013-01-21 15:32:00,
2013-01-21 09:35:00,24.6,14.5,30.47,SW,214,0.0,4.0,65,0.00,,FEW250,0.00,VWS V14.01,2013-01-21 15:35:00,
2013-01-21 09:37:00,25.0,14.2,30.47,WSW,241,3.0,3.0,63,0.00,,FEW250,0.00,VWS V14.01,2013-01-21 15:37:00,
2013-01-21 09:40:00,24.9,13.0,30.47,WSW,245,2.0,4.0,60,0.00,,FEW250,0.00,VWS V14.01,2013-01-21 15:40:00,
2013-01-21 09:42:00,24.9,13.7,30.47,WNW,287,0.0,2.0,62,0.00,,FEW250,0.00,VWS V14.01,2013-01-21 15:42:00,
2013-01-21 09:45:00,25.2,14.0,30.47,West,277,0.0,2.0,62,0.00,,FEW250,0.00,VWS V14.01,2013-01-21 15:45:00,
2013-01-21 09:47:00,25.8,14.6,30.47,NNW,341,0.0,1.0,62,0.00,,FEW250,0.00,VWS V14.01,2013-01-21 15:47:00,
2013-01-21 09:50:00,26.2,13.8,30.47,WSW,256,2.0,2.0,59,0.00,,FEW250,0.00,VWS V14.01,2013-01-21 15:50:00,
2013-01-21 09:52:00,26.3,13.6,30.47,WSW,253,0.0,2.0,58,0.00,,FEW250,0.00,VWS V14.01,2013-01-21 15:52:00,
2013-01-21 09:55:00,26.5,13.7,30.47,SW,217,2.0,3.0,58,0.00,,FEW250,0.00,VWS V14.01,2013-01-21 15:55:00,
2013-01-21 09:57:00,26.6,13.8,30.47,West,263,1.0,2.0,58,0.00,,FEW250,0.00,VWS V14.01,2013-01-21 15:57:00,
2013-01-21 10:00:00,26.7,13.5,30.47,WNW,288,1.0,2.0,57,0.00,,FEW250,0.00,VWS V14.01,2013-01-21 16:00:00,
2013-01-21 10:02:00,26.9,13.7,30.47,WNW,300,0.0,1.0,57,0.00,,FEW250,0.00,VWS V14.01,2013-01-21 16:02:00,
2013-01-21 10:05:00,26.9,12.9,30.47,WNW,296,1.0,3.0,55,0.00,,FEW250,0.00,VWS V14.01,2013-01-21 16:05:00,
2013-01-21 10:07:00,26.9,13.3,30.47,WSW,243,4.0,4.0,56,0.00,,FEW250,0.00,VWS V14.01,2013-01-21 16:07:00,
2013-01-21 10:10:00,26.8,13.2,30.47,WSW,241,1.0,4.0,56,0.00,,FEW250,0.00,VWS V14.01,2013-01-21 16:10:00,
2013-01-21 10:12:00,27.2,14.0,30.47,WSW,257,1.0,1.0,57,0.00,,FEW250,0.00,VWS V14.01,2013-01-21 16:12:00,
2013-01-21 10:15:00,27.5,13.5,30.47,West,279,0.0,3.0,55,0.00,,FEW250,0.00,VWS V14.01,2013-01-21 16:15:00,
2013-01-21 10:17:00,27.6,13.6,30.47,West,266,1.0,2.0,55,0.00,,FEW250,0.00,VWS V14.01,2013-01-21 16:17:00,
2013-01-21 10:20:00,27.9,14.2,30.47,WNW,285,1.0,2.0,56,0.00,,FEW250,0.00,VWS V14.01,2013-01-21 16:20:00,
2013-01-21 10:22:00,28.1,14.0,30.47,SW,225,1.0,2.0,55,0.00,,FEW250,0.00,VWS V14.01,2013-01-21 16:22:00,
2013-01-21 10:25:00,28.1,13.6,30.47,WSW,245,0.0,2.0,54,0.00,,FEW250,0.00,VWS V14.01,2013-01-21 16:25:00,
2013-01-21 10:27:00,28.4,14.3,30.47,SW,232,1.0,2.0,55,0.00,,FEW250,0.00,VWS V14.01,2013-01-21 16:27:00,
2013-01-21 10:30:00,28.5,13.6,30.47,SW,219,4.0,5.0,53,0.00,,CLR,0.00,VWS V14.01,2013-01-21 16:30:00,
2013-01-21 10:32:00,28.3,13.4,30.48,SSW,200,1.0,5.0,53,0.00,,FEW130,0.00,VWS V14.01,2013-01-21 16:32:00,
2013-01-21 10:35:00,28.4,13.9,30.47,WSW,246,2.0,5.0,54,0.00,,FEW250,0.00,VWS V14.01,2013-01-21 16:35:00,
2013-01-21 10:37:00,28.6,14.1,30.47,SE,131,1.0,2.0,54,0.00,,FEW130,0.00,VWS V14.01,2013-01-21 16:37:00,
2013-01-21 10:40:00,29.3,15.1,30.47,WSW,242,1.0,2.0,55,0.00,,CLR,0.00,VWS V14.01,2013-01-21 16:40:00,
2013-01-21 10:42:00,29.7,14.2,30.47,WNW,286,1.0,4.0,52,0.00,,FEW130,0.00,VWS V14.01,2013-01-21 16:42:00,
2013-01-21 10:45:00,29.7,14.2,30.47,West,262,1.0,4.0,52,0.00,,FEW250,0.00,VWS V14.01,2013-01-21 16:45:00,
2013-01-21 10:47:00,29.7,14.7,30.47,WNW,293,0.0,2.0,53,0.00,,FEW130,0.00,VWS V14.01,2013-01-21 16:47:00,
2013-01-21 10:50:00,29.8,14.8,30.47,WSW,245,1.0,2.0,53,0.00,,FEW250,0.00,VWS V14.01,2013-01-21 16:50:00,
2013-01-21 10:52:00,29.9,14.0,30.47,NNW,333,3.0,4.0,51,0.00,,FEW130,0.00,VWS V14.01,2013-01-21 16:52:00,
2013-01-21 10:55:00,29.7,14.2,30.47,NNW,328,2.0,4.0,52,0.00,,FEW250,0.00,VWS V14.01,2013-01-21 16:55:00,
2013-01-21 10:57:00,29.6,13.7,30.47,WNW,284,2.0,3.0,51,0.00,,FEW130,0.00,VWS V14.01,2013-01-21 16:57:00,
2013-01-21 11:00:00,29.7,13.4,30.47,NW,316,2.0,4.0,50,0.00,,FEW250,0.00,VWS V14.01,2013-01-21 17:00:00,
2013-01-21 11:02:00,29.6,13.3,30.47,West,278,1.0,3.0,50,0.00,,FEW130,0.00,VWS V14.01,2013-01-21 17:02:00,
2013-01-21 11:05:00,29.6,13.7,30.47,NW,316,3.0,3.0,51,0.00,,FEW250,0.00,VWS V14.01,2013-01-21 17:05:00,
2013-01-21 11:07:00,29.6,13.7,30.47,South,172,3.0,4.0,51,0.00,,FEW130,0.00,VWS V14.01,2013-01-21 17:07:00,
2013-01-21 11:10:00,30.1,14.2,30.47,ESE,110,1.0,4.0,51,0.00,,FEW250,0.00,VWS V14.01,2013-01-21 17:10:00,
2013-01-21 11:12:00,30.4,14.0,30.47,NE,46,0.0,3.0,50,0.00,,FEW130,0.00,VWS V14.01,2013-01-21 17:12:00,
2013-01-21 11:15:00,30.4,14.0,30.47,NNE,15,4.0,5.0,50,0.00,,FEW250,0.00,VWS V14.01,2013-01-21 17:15:00,
2013-01-21 11:17:00,30.2,13.4,30.47,NE,39,2.0,5.0,49,0.00,,FEW130,0.00,VWS V14.01,2013-01-21 17:17:00,
2013-01-21 11:20:00,30.0,13.6,30.47,NE,44,0.0,5.0,50,0.00,,FEW250,0.00,VWS V14.01,2013-01-21 17:20:00,
2013-01-21 11:22:00,30.1,14.2,30.47,NW,318,1.0,3.0,51,0.00,,FEW130,0.00,VWS V14.01,2013-01-21 17:22:00,
2013-01-21 11:25:00,30.3,13.9,30.47,West,274,3.0,5.0,50,0.00,,FEW250,0.00,VWS V14.01,2013-01-21 17:25:00,
2013-01-21 11:27:00,30.5,14.5,30.47,West,266,2.0,3.0,51,0.00,,FEW130,0.00,VWS V14.01,2013-01-21 17:27:00,
2013-01-21 11:30:00,30.8,14.4,30.47,WSW,245,1.0,3.0,50,0.00,,FEW250,0.00,VWS V14.01,2013-01-21 17:30:00,
2013-01-21 11:32:00,31.1,14.2,30.47,West,260,1.0,2.0,49,0.00,,FEW250,0.00,VWS V14.01,2013-01-21 17:32:00,
2013-01-21 11:35:00,31.3,14.4,30.47,SSE,156,2.0,3.0,49,0.00,,FEW250,0.00,VWS V14.01,2013-01-21 17:35:00,
2013-01-21 11:37:00,31.7,15.2,30.47,NE,39,1.0,2.0,50,0.00,,FEW250,0.00,VWS V14.01,2013-01-21 17:37:00,
2013-01-21 11:40:00,31.9,14.4,30.47,East,92,0.0,2.0,48,0.00,,FEW250,0.00,VWS V14.01,2013-01-21 17:40:00,
2013-01-21 11:42:00,32.1,14.2,30.47,SSE,166,0.0,2.0,47,0.00,,FEW250,0.00,VWS V14.01,2013-01-21 17:42:00,
2013-01-21 11:45:00,32.3,14.3,30.47,North,8,2.0,4.0,47,0.00,,FEW250,0.00,VWS V14.01,2013-01-21 17:45:00,
2013-01-21 11:47:00,32.2,14.2,30.46,NNW,335,1.0,4.0,47,0.00,,FEW250,0.00,VWS V14.01,2013-01-21 17:47:00,
2013-01-21 11:50:00,32.2,14.7,30.46,North,6,2.0,4.0,48,0.00,,FEW250,0.00,VWS V14.01,2013-01-21 17:50:00,
2013-01-21 11:52:00,32.1,14.2,30.46,WNW,303,0.0,2.0,47,0.00,,FEW250,0.00,VWS V14.01,2013-01-21 17:52:00,
2013-01-21 11:55:00,32.2,14.7,30.45,WSW,251,2.0,2.0,48,0.00,,FEW250,0.00,VWS V14.01,2013-01-21 17:55:00,
2013-01-21 11:57:00,32.5,14.5,30.45,NE,53,2.0,2.0,47,0.00,,FEW250,0.00,VWS V14.01,2013-01-21 17:57:00,
2013-01-21 12:00:00,33.0,14.5,30.45,SE,131,0.0,4.0,46,0.00,,FEW250,0.00,VWS V14.01,2013-01-21 18:00:00,
2013-01-21 12:02:00,33.1,14.6,30.44,NE,41,2.0,3.0,46,0.00,,FEW250,0.00,VWS V14.01,2013-01-21 18:02:00,
2013-01-21 12:05:00,32.7,14.2,30.44,ENE,75,1.0,4.0,46,0.00,,FEW250,0.00,VWS V14.01,2013-01-21 18:05:00,
2013-01-21 12:07:00,32.4,13.9,30.44,ESE,110,2.0,3.0,46,0.00,,FEW250,0.00,VWS V14.01,2013-01-21 18:07:00,
2013-01-21 12:10:00,32.4,14.4,30.44,East,91,2.0,3.0,47,0.00,,FEW250,0.00,VWS V14.01,2013-01-21 18:10:00,
2013-01-21 12:12:00,32.5,14.5,30.44,SSE,154,4.0,4.0,47,0.00,,FEW250,0.00,VWS V14.01,2013-01-21 18:12:00,
2013-01-21 12:15:00,32.7,14.7,30.44,WSW,248,5.0,5.0,47,0.00,,CLR,0.00,VWS V14.01,2013-01-21 18:15:00,
2013-01-21 12:17:00,33.0,15.0,30.44,SSW,192,2.0,2.0,47,0.00,,FEW250,0.00,VWS V14.01,2013-01-21 18:17:00,
2013-01-21 12:20:00,33.3,14.8,30.44,SSE,155,1.0,4.0,46,0.00,,CLR,0.00,VWS V14.01,2013-01-21 18:20:00,
2013-01-21 12:22:00,33.5,14.9,30.44,West,259,1.0,2.0,46,0.00,,FEW250,0.00,VWS V14.01,2013-01-21 18:22:00,
2013-01-21 12:25:00,33.7,14.6,30.45,WSW,249,0.0,3.0,45,0.00,,CLR,0.00,VWS V14.01,2013-01-21 18:25:00,
2013-01-21 12:27:00,33.7,14.6,30.44,SSW,194,0.0,2.0,45,0.00,,FEW250,0.00,VWS V14.01,2013-01-21 18:27:00,
2013-01-21 12:30:00,33.8,14.7,30.44,NNE,16,1.0,2.0,45,0.00,,CLR,0.00,VWS V14.01,2013-01-21 18:30:00,
2013-01-21 12:32:00,33.8,14.7,30.44,ENE,65,0.0,2.0,45,0.00,,FEW250,0.00,VWS V14.01,2013-01-21 18:32:00,
2013-01-21 12:35:00,33.8,14.7,30.44,ESE,113,0.0,2.0,45,0.00,,CLR,0.00,VWS V14.01,2013-01-21 18:35:00,
2013-01-21 12:37:00,33.9,14.8,30.43,WNW,283,1.0,2.0,45,0.00,,SCT250,0.00,VWS V14.01,2013-01-21 18:37:00,
2013-01-21 12:40:00,33.6,14.5,30.43,ENE,75,1.0,4.0,45,0.00,,CLR,0.00,VWS V14.01,2013-01-21 18:40:00,
2013-01-21 12:42:00,33.1,14.1,30.42,ENE,70,0.0,4.0,45,0.00,,SCT250,0.00,VWS V14.01,2013-01-21 18:42:00,
2013-01-21 12:45:00,33.3,15.3,30.42,WSW,238,2.0,4.0,47,0.00,,CLR,0.00,VWS V14.01,2013-01-21 18:45:00,
2013-01-21 12:47:00,33.6,15.0,30.42,WSW,246,2.0,3.0,46,0.00,,SCT250,0.00,VWS V14.01,2013-01-21 18:47:00,
2013-01-21 12:50:00,33.8,15.2,30.42,SE,129,2.0,4.0,46,0.00,,CLR,0.00,VWS V14.01,2013-01-21 18:50:00,
2013-01-21 12:52:00,34.1,15.5,30.41,South,187,5.0,8.0,46,0.00,,SCT250,0.00,VWS V14.01,2013-01-21 18:52:00,
2013-01-21 12:55:00,34.2,15.1,30.41,SSE,153,4.0,8.0,45,0.00,,CLR,0.00,VWS V14.01,2013-01-21 18:55:00,
2013-01-21 12:57:00,34.4,15.8,30.41,SW,218,4.0,6.0,46,0.00,,SCT250,0.00,VWS V14.01,2013-01-21 18:57:00,
2013-01-21 13:00:00,34.6,15.4,30.41,South,179,2.0,7.0,45,0.00,,CLR,0.00,VWS V14.01,2013-01-21 19:00:00,
2013-01-21 13:02:00,34.8,15.6,30.41,SSW,198,4.0,4.0,45,0.00,,SCT250,0.00,VWS V14.01,2013-01-21 19:02:00,
2013-01-21 13:05:00,35.1,15.9,30.41,SSW,204,1.0,6.0,45,0.00,,CLR,0.00,VWS V14.01,2013-01-21 19:05:00,
2013-01-21 13:07:00,35.1,15.4,30.41,SW,218,1.0,4.0,44,0.00,,SCT250,0.00,VWS V14.01,2013-01-21 19:07:00,
2013-01-21 13:10:00,34.9,15.2,30.41,East,91,1.0,4.0,44,0.00,,CLR,0.00,VWS V14.01,2013-01-21 19:10:00,
2013-01-21 13:12:00,34.8,15.1,30.41,West,271,1.0,2.0,44,0.00,,SCT250,0.00,VWS V14.01,2013-01-21 19:12:00,
2013-01-21 13:15:00,35.0,15.3,30.41,WSW,248,3.0,3.0,44,0.00,,CLR,0.00,VWS V14.01,2013-01-21 19:15:00,
2013-01-21 13:17:00,35.0,15.3,30.41,SW,231,1.0,3.0,44,0.00,,SCT250,0.00,VWS V14.01,2013-01-21 19:17:00,
2013-01-21 13:20:00,34.7,15.0,30.41,South,173,2.0,3.0,44,0.00,,CLR,0.00,VWS V14.01,2013-01-21 19:20:00,
2013-01-21 13:22:00,34.7,15.6,30.41,WNW,285,2.0,3.0,45,0.00,,SCT250,0.00,VWS V14.01,2013-01-21 19:22:00,
2013-01-21 13:25:00,34.9,16.2,30.41,SW,225,1.0,3.0,46,0.00,,CLR,0.00,VWS V14.01,2013-01-21 19:25:00,
2013-01-21 13:27:00,35.2,15.5,30.41,West,276,0.0,2.0,44,0.00,,SCT250,0.00,VWS V14.01,2013-01-21 19:27:00,
2013-01-21 13:30:00,34.9,14.7,30.40,ENE,72,0.0,4.0,43,0.00,,CLR,0.00,VWS V14.01,2013-01-21 19:30:00,
2013-01-21 13:32:00,34.8,15.6,30.40,WNW,301,3.0,3.0,45,0.00,,SCT250,0.00,VWS V14.01,2013-01-21 19:32:00,
2013-01-21 13:35:00,35.3,16.1,30.40,SSW,212,3.0,4.0,45,0.00,,CLR,0.00,VWS V14.01,2013-01-21 19:35:00,
2013-01-21 13:37:00,35.5,15.8,30.40,South,172,2.0,3.0,44,0.00,,SCT250,0.00,VWS V14.01,2013-01-21 19:37:00,
2013-01-21 13:40:00,35.8,15.5,30.40,NNW,338,2.0,3.0,43,0.00,,CLR,0.00,VWS V14.01,2013-01-21 19:40:00,
2013-01-21 13:41:00,35.8,15.5,30.40,NE,42,0.0,2.0,43,0.00,,SCT250,0.00,VWS V14.01,2013-01-21 19:41:00,
2013-01-21 13:45:00,35.8,16.0,30.40,NW,315,3.0,3.0,44,0.00,,CLR,0.00,VWS V14.01,2013-01-21 19:45:00,
2013-01-21 13:46:00,35.6,15.3,30.40,NNW,346,1.0,4.0,43,0.00,,SCT250,0.00,VWS V14.01,2013-01-21 19:46:00,
2013-01-21 13:50:00,35.2,15.5,30.40,NW,312,6.0,7.0,44,0.00,,CLR,0.00,VWS V14.01,2013-01-21 19:50:00,
2013-01-21 13:51:00,34.8,14.6,30.40,WNW,303,3.0,6.0,43,0.00,,SCT250,0.00,VWS V14.01,2013-01-21 19:51:00,
2013-01-21 13:55:00,34.9,15.2,30.39,NW,316,0.0,6.0,44,0.00,,CLR,0.00,VWS V14.01,2013-01-21 19:55:00,
2013-01-21 13:56:00,35.0,15.3,30.39,North,349,1.0,5.0,44,0.00,,SCT250,0.00,VWS V14.01,2013-01-21 19:56:00,
2013-01-21 14:00:00,34.9,15.2,30.39,ESE,120,1.0,5.0,44,0.00,,CLR,0.00,VWS V14.01,2013-01-21 20:00:00,
2013-01-21 14:01:00,34.8,15.6,30.39,ENE,63,1.0,2.0,45,0.00,,SCT250,0.00,VWS V14.01,2013-01-21 20:01:00,
2013-01-21 14:05:00,35.1,15.4,30.39,WSW,248,1.0,2.0,44,0.00,,CLR,0.00,VWS V14.01,2013-01-21 20:05:00,
2013-01-21 14:06:00,35.3,16.1,30.39,West,259,1.0,1.0,45,0.00,,SCT250,0.00,VWS V14.01,2013-01-21 20:06:00,
2013-01-21 14:10:00,35.6,15.3,30.39,North,352,1.0,4.0,43,0.00,,CLR,0.00,VWS V14.01,2013-01-21 20:10:00,
2013-01-21 14:11:00,35.7,15.9,30.39,WNW,285,2.0,3.0,44,0.00,,SCT250,0.00,VWS V14.01,2013-01-21 20:11:00,
2013-01-21 14:15:00,35.7,15.4,30.39,West,278,2.0,4.0,43,0.00,,CLR,0.00,VWS V14.01,2013-01-21 20:15:00,
2013-01-21 14:16:00,35.7,15.9,30.39,NW,326,1.0,3.0,44,0.00,,SCT250,0.00,VWS V14.01,2013-01-21 20:16:00,
2013-01-21 14:20:00,35.5,15.2,30.39,ENE,61,0.0,3.0,43,0.00,,CLR,0.00,VWS V14.01,2013-01-21 20:20:00,
2013-01-21 14:21:00,35.6,15.9,30.39,South,188,0.0,1.0,44,0.00,,SCT250,0.00,VWS V14.01,2013-01-21 20:21:00,
2013-01-21 14:25:00,36.3,16.5,30.39,West,259,0.0,2.0,44,0.00,,CLR,0.00,VWS V14.01,2013-01-21 20:25:00,
2013-01-21 14:26:00,36.6,16.2,30.38,NW,314,2.0,2.0,43,0.00,,SCT250,0.00,VWS V14.01,2013-01-21 20:26:00,
2013-01-21 14:30:00,36.3,15.4,30.39,WNW,291,3.0,5.0,42,0.00,,CLR,0.00,VWS V14.01,2013-01-21 20:30:00,
2013-01-21 14:31:00,36.2,15.9,30.38,NW,311,3.0,4.0,43,0.00,,SCT250,0.00,VWS V14.01,2013-01-21 20:31:00,
2013-01-21 14:35:00,36.0,15.7,30.38,NNW,334,2.0,4.0,43,0.00,,CLR,0.00,VWS V14.01,2013-01-21 20:35:00,
2013-01-21 14:36:00,35.9,15.6,30.38,WSW,256,1.0,2.0,43,0.00,,FEW250,0.00,VWS V14.01,2013-01-21 20:36:00,
2013-01-21 14:40:00,36.2,16.4,30.38,West,276,1.0,3.0,44,0.00,,CLR,0.00,VWS V14.01,2013-01-21 20:40:00,
2013-01-21 14:41:00,36.5,16.1,30.38,SSE,149,2.0,2.0,43,0.00,,FEW250,0.00,VWS V14.01,2013-01-21 20:41:00,
2013-01-21 14:45:00,37.1,16.1,30.38,SE,130,2.0,3.0,42,0.00,,CLR,0.00,VWS V14.01,2013-01-21 20:45:00,
2013-01-21 14:46:00,37.0,16.1,30.38,ESE,117,2.0,3.0,42,0.00,,FEW250,0.00,VWS V14.01,2013-01-21 20:46:00,
2013-01-21 14:50:00,37.0,16.1,30.38,East,91,0.0,4.0,42,0.00,,CLR,0.00,VWS V14.01,2013-01-21 20:50:00,
2013-01-21 14:51:00,37.2,16.2,30.38,SSW,213,0.0,1.0,42,0.00,,FEW250,0.00,VWS V14.01,2013-01-21 20:51:00,
2013-01-21 14:55:00,37.6,16.6,30.37,South,177,2.0,6.0,42,0.00,,CLR,0.00,VWS V14.01,2013-01-21 20:55:00,
2013-01-21 14:56:00,37.8,16.2,30.37,SSE,167,1.0,4.0,41,0.00,,FEW250,0.00,VWS V14.01,2013-01-21 20:56:00,
2013-01-21 15:00:00,38.1,16.5,30.37,ESE,122,1.0,4.0,41,0.00,,CLR,0.00,VWS V14.01,2013-01-21 21:00:00,
2013-01-21 15:01:00,38.3,16.7,30.37,NNE,23,1.0,1.0,41,0.00,,FEW250,0.00,VWS V14.01,2013-01-21 21:01:00,
2013-01-21 15:05:00,37.9,15.8,30.36,SSW,206,3.0,6.0,40,0.00,,CLR,0.00,VWS V14.01,2013-01-21 21:05:00,
2013-01-21 15:06:00,37.6,16.0,30.36,SE,127,3.0,5.0,41,0.00,,FEW250,0.00,VWS V14.01,2013-01-21 21:06:00,
2013-01-21 15:10:00,37.6,16.0,30.36,ESE,118,3.0,6.0,41,0.00,,CLR,0.00,VWS V14.01,2013-01-21 21:10:00,
2013-01-21 15:11:00,37.2,15.1,30.36,SSE,166,5.0,8.0,40,0.00,,FEW250,0.00,VWS V14.01,2013-01-21 21:11:00,
2013-01-21 15:15:00,37.1,15.6,30.36,ESE,103,3.0,8.0,41,0.00,,CLR,0.00,VWS V14.01,2013-01-21 21:15:00,
2013-01-21 15:16:00,37.0,16.1,30.36,SSE,160,3.0,4.0,42,0.00,,FEW250,0.00,VWS V14.01,2013-01-21 21:16:00,
2013-01-21 15:20:00,37.2,16.2,30.35,SE,132,3.0,4.0,42,0.00,,CLR,0.00,VWS V14.01,2013-01-21 21:20:00,
2013-01-21 15:21:00,37.2,15.7,30.35,SW,229,2.0,4.0,41,0.00,,FEW250,0.00,VWS V14.01,2013-01-21 21:21:00,
2013-01-21 15:25:00,37.2,15.7,30.35,SSE,165,3.0,7.0,41,0.00,,CLR,0.00,VWS V14.01,2013-01-21 21:25:00,
2013-01-21 15:26:00,37.3,15.8,30.35,ESE,117,2.0,4.0,41,0.00,,FEW250,0.00,VWS V14.01,2013-01-21 21:26:00,
2013-01-21 15:30:00,37.4,15.9,30.35,South,177,8.0,9.0,41,0.00,,CLR,0.00,VWS V14.01,2013-01-21 21:30:00,
2013-01-21 15:31:00,37.3,15.8,30.35,SSW,197,2.0,8.0,41,0.00,,FEW250,0.00,VWS V14.01,2013-01-21 21:31:00,
2013-01-21 15:35:00,37.4,15.9,30.35,East,97,0.0,8.0,41,0.00,,CLR,0.00,VWS V14.01,2013-01-21 21:35:00,
2013-01-21 15:36:00,37.5,16.0,30.34,SSE,156,4.0,4.0,41,0.00,,SCT250,0.00,VWS V14.01,2013-01-21 21:36:00,
2013-01-21 15:40:00,37.4,15.9,30.34,East,101,2.0,8.0,41,0.00,,CLR,0.00,VWS V14.01,2013-01-21 21:40:00,
2013-01-21 15:41:00,37.1,15.0,30.34,ESE,111,2.0,6.0,40,0.00,,SCT250,0.00,VWS V14.01,2013-01-21 21:41:00,
2013-01-21 15:45:00,37.2,16.2,30.34,SSE,150,4.0,6.0,42,0.00,,CLR,0.00,VWS V14.01,2013-01-21 21:45:00,
2013-01-21 15:46:00,37.4,15.9,30.34,ESE,113,2.0,6.0,41,0.00,,SCT250,0.00,VWS V14.01,2013-01-21 21:46:00,
2013-01-21 15:50:00,37.4,15.9,30.34,SE,130,1.0,6.0,41,0.00,,CLR,0.00,VWS V14.01,2013-01-21 21:50:00,
2013-01-21 15:51:00,37.4,15.9,30.34,ESE,112,4.0,5.0,41,0.00,,SCT250,0.00,VWS V14.01,2013-01-21 21:51:00,
2013-01-21 15:55:00,37.6,16.0,30.34,WSW,255,2.0,5.0,41,0.00,,CLR,0.00,VWS V14.01,2013-01-21 21:55:00,
2013-01-21 15:56:00,37.8,16.2,30.33,ENE,65,2.0,3.0,41,0.00,,SCT250,0.00,VWS V14.01,2013-01-21 21:56:00,
2013-01-21 16:00:00,37.9,16.3,30.33,ESE,120,5.0,7.0,41,0.00,,CLR,0.00,VWS V14.01,2013-01-21 22:00:00,
2013-01-21 16:01:00,37.8,15.7,30.33,SE,131,3.0,5.0,40,0.00,,SCT250,0.00,VWS V14.01,2013-01-21 22:01:00,
2013-01-21 16:05:00,37.7,15.6,30.33,SSE,166,2.0,9.0,40,0.00,,CLR,0.00,VWS V14.01,2013-01-21 22:05:00,
2013-01-21 16:06:00,37.6,16.0,30.33,SSE,158,2.0,4.0,41,0.00,,SCT250,0.00,VWS V14.01,2013-01-21 22:06:00,
2013-01-21 16:10:00,37.9,16.3,30.33,ESE,122,3.0,6.0,41,0.00,,CLR,0.00,VWS V14.01,2013-01-21 22:10:00,
2013-01-21 16:11:00,38.0,16.4,30.33,SSE,154,2.0,3.0,41,0.00,,SCT250,0.00,VWS V14.01,2013-01-21 22:11:00,
2013-01-21 16:15:00,38.2,16.0,30.33,SE,142,2.0,4.0,40,0.00,,CLR,0.00,VWS V14.01,2013-01-21 22:15:00,
2013-01-21 16:16:00,38.1,15.9,30.33,SSE,166,5.0,9.0,40,0.00,,SCT250,0.00,VWS V14.01,2013-01-21 22:16:00,
2013-01-21 16:20:00,37.8,15.7,30.33,SSE,167,2.0,9.0,40,0.00,,CLR,0.00,VWS V14.01,2013-01-21 22:20:00,
2013-01-21 16:21:00,37.6,15.5,30.33,SSE,155,4.0,5.0,40,0.00,,SCT250,0.00,VWS V14.01,2013-01-21 22:21:00,
2013-01-21 16:25:00,37.6,16.0,30.33,SW,228,1.0,5.0,41,0.00,,CLR,0.00,VWS V14.01,2013-01-21 22:25:00,
2013-01-21 16:26:00,37.6,16.0,30.33,East,89,1.0,1.0,41,0.00,,SCT250,0.00,VWS V14.01,2013-01-21 22:26:00,
2013-01-21 16:30:00,37.4,15.9,30.33,SSE,152,2.0,6.0,41,0.00,,CLR,0.00,VWS V14.01,2013-01-21 22:30:00,
2013-01-21 16:31:00,37.3,15.8,30.33,ESE,113,2.0,4.0,41,0.00,,SCT250,0.00,VWS V14.01,2013-01-21 22:31:00,
2013-01-21 16:35:00,37.0,15.5,30.33,SE,134,4.0,7.0,41,0.00,,CLR,0.00,VWS V14.01,2013-01-21 22:35:00,
2013-01-21 16:36:00,36.9,15.4,30.32,SE,125,3.0,5.0,41,0.00,,FEW250,0.00,VWS V14.01,2013-01-21 22:36:00,
2013-01-21 16:40:00,36.9,15.4,30.32,SSE,148,2.0,6.0,41,0.00,,CLR,0.00,VWS V14.01,2013-01-21 22:40:00,
2013-01-21 16:41:00,36.8,15.3,30.32,SSW,205,3.0,10.0,41,0.00,,FEW250,0.00,VWS V14.01,2013-01-21 22:41:00,
2013-01-21 16:45:00,36.8,15.9,30.31,SSE,150,4.0,10.0,42,0.00,,CLR,0.00,VWS V14.01,2013-01-21 22:45:00,
2013-01-21 16:46:00,36.8,15.9,30.32,ESE,122,3.0,5.0,42,0.00,,FEW250,0.00,VWS V14.01,2013-01-21 22:46:00,
2013-01-21 16:50:00,36.7,15.8,30.32,ESE,111,3.0,6.0,42,0.00,,CLR,0.00,VWS V14.01,2013-01-21 22:50:00,
2013-01-21 16:51:00,36.7,15.8,30.32,SSE,163,4.0,5.0,42,0.00,,FEW250,0.00,VWS V14.01,2013-01-21 22:51:00,
2013-01-21 16:55:00,36.6,15.7,30.32,SSE,152,2.0,5.0,42,0.00,,CLR,0.00,VWS V14.01,2013-01-21 22:55:00,
2013-01-21 16:56:00,36.5,15.6,30.32,ESE,108,2.0,6.0,42,0.00,,FEW250,0.00,VWS V14.01,2013-01-21 22:56:00,
2013-01-21 17:00:00,36.4,15.5,30.32,SSW,212,1.0,6.0,42,0.00,,CLR,0.00,VWS V14.01,2013-01-21 23:00:00,
2013-01-21 17:01:00,36.3,15.4,30.32,ESE,118,3.0,5.0,42,0.00,,FEW250,0.00,VWS V14.01,2013-01-21 23:01:00,
2013-01-21 17:05:00,36.2,15.9,30.32,SE,143,3.0,7.0,43,0.00,,CLR,0.00,VWS V14.01,2013-01-21 23:05:00,
2013-01-21 17:06:00,36.2,15.9,30.32,SSW,210,3.0,4.0,43,0.00,,FEW250,0.00,VWS V14.01,2013-01-21 23:06:00,
2013-01-21 17:10:00,36.2,15.9,30.32,ESE,121,1.0,4.0,43,0.00,,CLR,0.00,VWS V14.01,2013-01-21 23:10:00,
2013-01-21 17:11:00,36.2,15.9,30.31,SE,129,3.0,5.0,43,0.00,,FEW250,0.00,VWS V14.01,2013-01-21 23:11:00,
2013-01-21 17:15:00,36.1,15.8,30.31,ESE,108,2.0,5.0,43,0.00,,CLR,0.00,VWS V14.01,2013-01-21 23:15:00,
2013-01-21 17:16:00,36.1,15.8,30.31,SSE,158,2.0,3.0,43,0.00,,FEW250,0.00,VWS V14.01,2013-01-21 23:16:00,
2013-01-21 17:20:00,36.0,15.7,30.31,SSE,150,1.0,6.0,43,0.00,,CLR,0.00,VWS V14.01,2013-01-21 23:20:00,
2013-01-21 17:21:00,35.9,15.6,30.31,ESE,119,2.0,2.0,43,0.00,,FEW250,0.00,VWS V14.01,2013-01-21 23:21:00,
2013-01-21 17:25:00,32.9,15.4,30.33,ESE,113,0.0,0.0,48,0.00,,FEW085,0.00,VWS V14.01,2013-01-21 23:25:00,
2013-01-21 17:26:00,35.7,15.4,30.32,SE,125,2.0,2.0,43,0.00,,FEW250,0.00,VWS V14.01,2013-01-21 23:26:00,
2013-01-21 17:30:00,32.6,15.6,30.33,ESE,113,1.0,1.0,49,0.00,,FEW085,0.00,VWS V14.01,2013-01-21 23:30:00,
2013-01-21 17:31:00,35.5,15.8,30.33,ESE,122,0.0,1.0,44,0.00,,FEW250,0.00,VWS V14.01,2013-01-21 23:31:00,
2013-01-21 17:35:00,35.3,15.6,30.33,ESE,122,0.0,1.0,44,0.00,,CLR,0.00,VWS V14.01,2013-01-21 23:35:00,
2013-01-21 17:36:00,35.2,15.5,30.33,SE,137,1.0,2.0,44,0.00,,FEW250,0.00,VWS V14.01,2013-01-21 23:36:00,
2013-01-21 17:40:00,35.0,15.3,30.33,SE,136,0.0,2.0,44,0.00,,CLR,0.00,VWS V14.01,2013-01-21 23:40:00,
2013-01-21 17:41:00,35.0,15.3,30.33,SE,136,0.0,0.0,44,0.00,,FEW250,0.00,VWS V14.01,2013-01-21 23:41:00,
2013-01-21 17:45:00,32.0,15.5,30.33,ESE,116,0.0,0.0,50,0.00,,FEW085,0.00,VWS V14.01,2013-01-21 23:45:00,
2013-01-21 17:46:00,34.6,15.5,30.33,SE,138,0.0,0.0,45,0.00,,FEW250,0.00,VWS V14.01,2013-01-21 23:46:00,
2013-01-21 17:50:00,31.8,15.8,30.33,ESE,116,0.0,0.0,51,0.00,,FEW085,0.00,VWS V14.01,2013-01-21 23:50:00,
2013-01-21 17:51:00,34.2,15.6,30.33,SE,138,0.0,0.0,46,0.00,,FEW250,0.00,VWS V14.01,2013-01-21 23:51:00,
2013-01-21 17:55:00,31.6,15.6,30.33,ESE,120,1.0,2.0,51,0.00,,FEW085,0.00,VWS V14.01,2013-01-21 23:55:00,
2013-01-21 17:56:00,33.8,15.7,30.33,SE,138,0.0,0.0,47,0.00,,FEW250,0.00,VWS V14.01,2013-01-21 23:56:00,
2013-01-21 18:00:00,33.7,15.6,30.32,SE,125,1.0,1.0,47,0.00,,CLR,0.00,VWS V14.01,2013-01-22 00:00:00,
2013-01-21 18:01:00,33.7,15.6,30.32,SE,125,1.0,2.0,47,0.00,,FEW250,0.00,VWS V14.01,2013-01-22 00:01:00,
2013-01-21 18:05:00,33.7,15.6,30.32,SE,125,0.0,2.0,47,0.00,,CLR,0.00,VWS V14.01,2013-01-22 00:05:00,
2013-01-21 18:06:00,33.6,15.5,30.32,SE,124,1.0,1.0,47,0.00,,FEW250,0.00,VWS V14.01,2013-01-22 00:06:00,
2013-01-21 18:10:00,33.5,15.4,30.32,SE,125,1.0,1.0,47,0.00,,CLR,0.00,VWS V14.01,2013-01-22 00:10:00,
2013-01-21 18:11:00,33.5,15.4,30.32,SE,125,1.0,2.0,47,0.00,,FEW250,0.00,VWS V14.01,2013-01-22 00:11:00,
2013-01-21 18:15:00,33.3,15.7,30.32,ESE,123,1.0,2.0,48,0.00,,CLR,0.00,VWS V14.01,2013-01-22 00:15:00,
2013-01-21 18:16:00,33.3,15.7,30.32,ESE,121,2.0,2.0,48,0.00,,FEW250,0.00,VWS V14.01,2013-01-22 00:16:00,
2013-01-21 18:20:00,33.2,15.6,30.32,ESE,113,0.0,2.0,48,0.00,,CLR,0.00,VWS V14.01,2013-01-22 00:20:00,
2013-01-21 18:21:00,33.1,15.6,30.33,ESE,113,0.0,0.0,48,0.00,,FEW250,0.00,VWS V14.01,2013-01-22 00:21:00,
2013-01-21 18:25:00,32.9,15.4,30.33,ESE,113,0.0,0.0,48,0.00,,CLR,0.00,VWS V14.01,2013-01-22 00:25:00,
2013-01-21 18:26:00,32.8,15.8,30.33,ESE,113,0.0,0.0,49,0.00,,FEW250,0.00,VWS V14.01,2013-01-22 00:26:00,
2013-01-21 18:30:00,32.6,15.6,30.33,ESE,113,1.0,1.0,49,0.00,,CLR,0.00,VWS V14.01,2013-01-22 00:30:00,
2013-01-21 18:31:00,32.6,15.6,30.33,ESE,116,1.0,2.0,49,0.00,,FEW250,0.00,VWS V14.01,2013-01-22 00:31:00,
2013-01-21 18:35:00,31.3,15.7,30.33,SE,124,1.0,2.0,52,0.00,,FEW085,0.00,VWS V14.01,2013-01-22 00:35:00,
2013-01-21 18:36:00,32.4,15.4,30.34,ESE,116,0.0,0.0,49,0.00,,FEW250,0.00,VWS V14.01,2013-01-22 00:36:00,
2013-01-21 18:40:00,32.3,15.8,30.34,ESE,116,0.0,0.0,50,0.00,,CLR,0.00,VWS V14.01,2013-01-22 00:40:00,
2013-01-21 18:41:00,32.2,15.7,30.34,ESE,115,0.0,0.0,50,0.00,,FEW250,0.00,VWS V14.01,2013-01-22 00:41:00,
2013-01-21 18:45:00,32.0,15.5,30.33,ESE,116,0.0,0.0,50,0.00,,CLR,0.00,VWS V14.01,2013-01-22 00:45:00,
2013-01-21 18:46:00,32.0,15.5,30.33,ESE,115,0.0,0.0,50,0.00,,FEW250,0.00,VWS V14.01,2013-01-22 00:46:00,
2013-01-21 18:50:00,31.8,15.8,30.33,ESE,116,0.0,0.0,51,0.00,,CLR,0.00,VWS V14.01,2013-01-22 00:50:00,
2013-01-21 18:51:00,31.7,15.7,30.33,ESE,116,0.0,0.0,51,0.00,,FEW250,0.00,VWS V14.01,2013-01-22 00:51:00,
2013-01-21 18:55:00,31.6,15.6,30.33,ESE,120,1.0,2.0,51,0.00,,CLR,0.00,VWS V14.01,2013-01-22 00:55:00,
2013-01-21 18:56:00,31.7,15.7,30.33,ESE,118,1.0,2.0,51,0.00,,FEW250,0.00,VWS V14.01,2013-01-22 00:56:00,
2013-01-21 19:00:00,31.6,15.6,30.33,SE,134,1.0,3.0,51,0.00,,CLR,0.00,VWS V14.01,2013-01-22 01:00:00,
2013-01-21 19:01:00,31.6,16.0,30.33,ESE,115,2.0,2.0,52,0.00,,FEW250,0.00,VWS V14.01,2013-01-22 01:01:00,
2013-01-21 19:05:00,31.5,15.9,30.33,ESE,121,2.0,2.0,52,0.00,,CLR,0.00,VWS V14.01,2013-01-22 01:05:00,
2013-01-21 19:06:00,31.5,15.9,30.33,ESE,119,2.0,2.0,52,0.00,,FEW250,0.00,VWS V14.01,2013-01-22 01:06:00,
2013-01-21 19:10:00,31.5,15.9,30.33,SE,124,0.0,2.0,52,0.00,,CLR,0.00,VWS V14.01,2013-01-22 01:10:00,
2013-01-21 19:11:00,31.5,15.9,30.33,SE,124,0.0,1.0,52,0.00,,FEW250,0.00,VWS V14.01,2013-01-22 01:11:00,
2013-01-21 19:15:00,31.4,15.8,30.33,ESE,122,0.0,1.0,52,0.00,,CLR,0.00,VWS V14.01,2013-01-22 01:15:00,
2013-01-21 19:16:00,31.5,15.9,30.33,SE,128,2.0,2.0,52,0.00,,FEW250,0.00,VWS V14.01,2013-01-22 01:16:00,
2013-01-21 19:20:00,31.5,15.9,30.33,ESE,123,1.0,2.0,52,0.00,,CLR,0.00,VWS V14.01,2013-01-22 01:20:00,
2013-01-21 19:21:00,31.5,15.9,30.33,ESE,122,1.0,1.0,52,0.00,,FEW250,0.00,VWS V14.01,2013-01-22 01:21:00,
2013-01-21 19:25:00,31.5,15.9,30.34,SE,129,0.0,2.0,52,0.00,,CLR,0.00,VWS V14.01,2013-01-22 01:25:00,
2013-01-21 19:26:00,31.5,15.9,30.34,SE,129,0.0,0.0,52,0.00,,FEW250,0.00,VWS V14.01,2013-01-22 01:26:00,
2013-01-21 19:30:00,31.4,15.8,30.34,SE,129,0.0,0.0,52,0.00,,CLR,0.00,VWS V14.01,2013-01-22 01:30:00,
2013-01-21 19:31:00,31.4,15.8,30.33,SE,124,1.0,2.0,52,0.00,,FEW250,0.00,VWS V14.01,2013-01-22 01:31:00,
2013-01-21 19:35:00,31.3,15.7,30.33,SE,124,1.0,2.0,52,0.00,,CLR,0.00,VWS V14.01,2013-01-22 01:35:00,
2013-01-21 19:36:00,31.3,15.7,30.33,SE,128,1.0,2.0,52,0.00,,CLR,0.00,VWS V14.01,2013-01-22 01:36:00,
2013-01-21 19:40:00,31.2,15.6,30.33,ESE,122,1.0,2.0,52,0.00,,CLR,0.00,VWS V14.01,2013-01-22 01:40:00,
2013-01-21 19:41:00,31.2,16.1,30.33,ESE,122,0.0,1.0,53,0.00,,CLR,0.00,VWS V14.01,2013-01-22 01:41:00,
2013-01-21 19:45:00,31.1,16.0,30.33,ESE,122,0.0,1.0,53,0.00,,CLR,0.00,VWS V14.01,2013-01-22 01:45:00,
2013-01-21 19:46:00,31.1,16.0,30.34,ESE,122,0.0,0.0,53,0.00,,CLR,0.00,VWS V14.01,2013-01-22 01:46:00,
2013-01-21 19:50:00,30.9,15.8,30.34,ESE,123,0.0,0.0,53,0.00,,CLR,0.00,VWS V14.01,2013-01-22 01:50:00,
2013-01-21 19:51:00,30.8,15.7,30.34,ESE,122,0.0,0.0,53,0.00,,CLR,0.00,VWS V14.01,2013-01-22 01:51:00,
2013-01-21 19:55:00,30.6,15.5,30.34,ESE,122,0.0,0.0,53,0.00,,CLR,0.00,VWS V14.01,2013-01-22 01:55:00,
2013-01-21 19:56:00,30.6,15.5,30.34,ESE,122,0.0,0.0,53,0.00,,CLR,0.00,VWS V14.01,2013-01-22 01:56:00,
2013-01-21 20:00:00,30.5,15.9,30.34,ESE,122,0.0,0.0,54,0.00,,CLR,0.00,VWS V14.01,2013-01-22 02:00:00,
2013-01-21 20:01:00,30.4,15.8,30.34,ESE,123,0.0,0.0,54,0.00,,CLR,0.00,VWS V14.01,2013-01-22 02:01:00,
2013-01-21 20:05:00,30.3,15.7,30.34,ESE,122,0.0,0.0,54,0.00,,CLR,0.00,VWS V14.01,2013-01-22 02:05:00,
2013-01-21 20:06:00,30.3,15.7,30.34,ESE,122,0.0,0.0,54,0.00,,CLR,0.00,VWS V14.01,2013-01-22 02:06:00,
2013-01-21 20:10:00,30.2,16.0,30.34,ESE,123,0.0,0.0,55,0.00,,CLR,0.00,VWS V14.01,2013-01-22 02:10:00,
2013-01-21 20:11:00,30.2,16.0,30.33,ESE,113,0.0,0.0,55,0.00,,CLR,0.00,VWS V14.01,2013-01-22 02:11:00,
2013-01-21 20:15:00,30.2,16.0,30.33,ESE,113,0.0,0.0,55,0.00,,CLR,0.00,VWS V14.01,2013-01-22 02:15:00,
2013-01-21 20:16:00,30.1,15.9,30.33,ESE,113,0.0,0.0,55,0.00,,CLR,0.00,VWS V14.01,2013-01-22 02:16:00,
2013-01-21 20:20:00,30.1,15.9,30.33,ESE,119,0.0,0.0,55,0.00,,CLR,0.00,VWS V14.01,2013-01-22 02:20:00,
2013-01-21 20:21:00,30.0,15.8,30.33,ESE,118,0.0,0.0,55,0.00,,CLR,0.00,VWS V14.01,2013-01-22 02:21:00,
2013-01-21 20:25:00,30.0,16.2,30.33,ESE,110,0.0,0.0,56,0.00,,CLR,0.00,VWS V14.01,2013-01-22 02:25:00,
2013-01-21 20:26:00,29.9,16.1,30.33,ESE,110,0.0,0.0,56,0.00,,CLR,0.00,VWS V14.01,2013-01-22 02:26:00,
2013-01-21 20:30:00,29.9,16.1,30.33,SE,125,1.0,2.0,56,0.00,,CLR,0.00,VWS V14.01,2013-01-22 02:30:00,
2013-01-21 20:31:00,29.9,16.1,30.32,SE,126,0.0,1.0,56,0.00,,CLR,0.00,VWS V14.01,2013-01-22 02:31:00,
2013-01-21 20:35:00,29.7,15.9,30.33,SE,126,0.0,1.0,56,0.00,,CLR,0.00,VWS V14.01,2013-01-22 02:35:00,
2013-01-21 20:36:00,29.7,15.9,30.33,SE,125,0.0,0.0,56,0.00,,CLR,0.00,VWS V14.01,2013-01-22 02:36:00,
2013-01-21 20:40:00,29.6,15.9,30.33,SE,125,0.0,0.0,56,0.00,,CLR,0.00,VWS V14.01,2013-01-22 02:40:00,
2013-01-21 20:41:00,29.5,15.8,30.33,SE,126,0.0,0.0,56,0.00,,CLR,0.00,VWS V14.01,2013-01-22 02:41:00,
2013-01-21 20:45:00,29.5,15.8,30.33,SE,126,0.0,0.0,56,0.00,,CLR,0.00,VWS V14.01,2013-01-22 02:45:00,
2013-01-21 20:46:00,29.6,15.8,30.33,SE,124,0.0,0.0,56,0.00,,CLR,0.00,VWS V14.01,2013-01-22 02:46:00,
2013-01-21 20:50:00,29.6,15.9,30.32,ESE,118,1.0,2.0,56,0.00,,CLR,0.00,VWS V14.01,2013-01-22 02:50:00,
2013-01-21 20:51:00,29.6,15.8,30.32,SE,136,1.0,1.0,56,0.00,,CLR,0.00,VWS V14.01,2013-01-22 02:51:00,
2013-01-21 20:55:00,29.5,15.8,30.32,SE,129,1.0,2.0,56,0.00,,CLR,0.00,VWS V14.01,2013-01-22 02:55:00,
2013-01-21 20:56:00,29.5,15.8,30.32,SE,129,1.0,1.0,56,0.00,,CLR,0.00,VWS V14.01,2013-01-22 02:56:00,
2013-01-21 21:00:00,29.5,15.8,30.33,SE,135,1.0,2.0,56,0.00,,CLR,0.00,VWS V14.01,2013-01-22 03:00:00,
2013-01-21 21:01:00,29.5,15.8,30.32,SE,139,1.0,1.0,56,0.00,,CLR,0.00,VWS V14.01,2013-01-22 03:01:00,
2013-01-21 21:05:00,29.6,15.8,30.33,ESE,122,1.0,2.0,56,0.00,,CLR,0.00,VWS V14.01,2013-01-22 03:05:00,
2013-01-21 21:10:00,29.6,15.8,30.33,ESE,123,0.0,0.0,56,0.00,,CLR,0.00,VWS V14.01,2013-01-22 03:10:00,
2013-01-21 21:15:00,29.4,15.7,30.33,ESE,123,0.0,0.0,56,0.00,,CLR,0.00,VWS V14.01,2013-01-22 03:15:00,
2013-01-21 21:20:00,29.2,15.9,30.34,ESE,123,0.0,0.0,57,0.00,,CLR,0.00,VWS V14.01,2013-01-22 03:20:00,
2013-01-21 21:25:00,29.2,15.9,30.34,ESE,122,0.0,0.0,57,0.00,,CLR,0.00,VWS V14.01,2013-01-22 03:25:00,
2013-01-21 21:30:00,29.1,15.8,30.34,ESE,122,0.0,0.0,57,0.00,,CLR,0.00,VWS V14.01,2013-01-22 03:30:00,
2013-01-21 21:35:00,28.8,15.5,30.34,ESE,122,0.0,0.0,57,0.00,,CLR,0.00,VWS V14.01,2013-01-22 03:35:00,
2013-01-21 21:40:00,28.5,16.0,30.34,ESE,122,0.0,0.0,59,0.00,,CLR,0.00,VWS V14.01,2013-01-22 03:40:00,
2013-01-21 21:45:00,28.4,15.9,30.34,SE,129,0.0,0.0,59,0.00,,CLR,0.00,VWS V14.01,2013-01-22 03:45:00,
2013-01-21 21:50:00,28.4,15.9,30.34,SE,129,0.0,0.0,59,0.00,,CLR,0.00,VWS V14.01,2013-01-22 03:50:00,
2013-01-21 21:55:00,28.4,15.9,30.34,SE,124,2.0,2.0,59,0.00,,CLR,0.00,VWS V14.01,2013-01-22 03:55:00,
2013-01-21 22:00:00,28.4,15.9,30.33,ESE,103,2.0,3.0,59,0.00,,CLR,0.00,VWS V14.01,2013-01-22 04:00:00,
2013-01-21 22:05:00,28.5,16.0,30.34,ESE,108,1.0,2.0,59,0.00,,CLR,0.00,VWS V14.01,2013-01-22 04:05:00,
2013-01-21 22:10:00,28.6,16.1,30.34,ESE,117,2.0,3.0,59,0.00,,CLR,0.00,VWS V14.01,2013-01-22 04:10:00,
2013-01-21 22:15:00,28.7,15.8,30.34,SE,129,1.0,1.0,58,0.00,,CLR,0.00,VWS V14.01,2013-01-22 04:15:00,
2013-01-21 22:20:00,28.7,15.8,30.34,ESE,119,1.0,1.0,58,0.00,,CLR,0.00,VWS V14.01,2013-01-22 04:20:00,
2013-01-21 22:25:00,28.6,15.7,30.34,SE,125,3.0,3.0,58,0.00,,CLR,0.00,VWS V14.01,2013-01-22 04:25:00,
2013-01-21 22:30:00,28.6,15.7,30.34,ESE,120,0.0,1.0,58,0.00,,CLR,0.00,VWS V14.01,2013-01-22 04:30:00,
2013-01-21 22:35:00,28.5,15.6,30.34,ESE,121,2.0,2.0,58,0.00,,CLR,0.00,VWS V14.01,2013-01-22 04:35:00,
2013-01-21 22:40:00,28.5,15.6,30.35,ESE,117,1.0,1.0,58,0.00,,CLR,0.00,VWS V14.01,2013-01-22 04:40:00,
2013-01-21 22:45:00,28.3,15.8,30.35,ESE,106,0.0,1.0,59,0.00,,CLR,0.00,VWS V14.01,2013-01-22 04:45:00,
2013-01-21 22:50:00,28.2,15.7,30.35,ESE,106,1.0,1.0,59,0.00,,CLR,0.00,VWS V14.01,2013-01-22 04:50:00,
2013-01-21 22:55:00,28.0,15.9,30.35,East,87,3.0,5.0,60,0.00,,CLR,0.00,VWS V14.01,2013-01-22 04:55:00,
2013-01-21 23:00:00,27.7,15.6,30.35,ESE,107,3.0,4.0,60,0.00,,CLR,0.00,VWS V14.01,2013-01-22 05:00:00,
2013-01-21 23:05:00,27.1,15.4,30.35,ESE,118,2.0,5.0,61,0.00,,CLR,0.00,VWS V14.01,2013-01-22 05:05:00,
2013-01-21 23:10:00,26.7,15.4,30.35,ESE,114,2.0,4.0,62,0.00,,CLR,0.00,VWS V14.01,2013-01-22 05:10:00,
2013-01-21 23:15:00,26.4,15.5,30.35,SE,129,2.0,5.0,63,0.00,,CLR,0.00,VWS V14.01,2013-01-22 05:15:00,
2013-01-21 23:20:00,26.0,15.5,30.35,ESE,103,5.0,6.0,64,0.00,,CLR,0.00,VWS V14.01,2013-01-22 05:20:00,
2013-01-21 23:25:00,25.6,15.5,30.35,ESE,110,3.0,6.0,65,0.00,,CLR,0.00,VWS V14.01,2013-01-22 05:25:00,
2013-01-21 23:30:00,25.2,15.4,30.34,ESE,115,3.0,7.0,66,0.00,,CLR,0.00,VWS V14.01,2013-01-22 05:30:00,
2013-01-21 23:35:00,24.9,15.2,30.34,ESE,103,2.0,6.0,66,0.00,,CLR,0.00,VWS V14.01,2013-01-22 05:35:00,
2013-01-21 23:40:00,24.6,15.2,30.34,ESE,117,4.0,7.0,67,0.00,,CLR,0.00,VWS V14.01,2013-01-22 05:40:00,
2013-01-21 23:45:00,24.4,15.0,30.34,ESE,108,3.0,6.0,67,0.00,,CLR,0.00,VWS V14.01,2013-01-22 05:45:00,
2013-01-21 23:50:00,24.2,14.8,30.34,ESE,104,3.0,7.0,67,0.00,,CLR,0.00,VWS V14.01,2013-01-22 05:50:00,
2013-01-21 23:55:00,24.1,15.1,30.34,ENE,58,3.0,4.0,68,0.00,,CLR,0.00,VWS V14.01,2013-01-22 05:55:00,